Flag for Germany Weather past 2 weeks in Paderborn, North Rhine-Westphalia, Germany

Now
54 °F

Passing clouds.


Feels Like: 52 °F
Forecast: 35 / 59 °F
Wind: 7 mph from East

Location: Paderborn / Lippstadt

Current Time: Apr 19, 2015 at 1:48:22 PM

Latest Report: Apr 19, 2015 at 1:20 PM


Visibility: N/A

Pressure: 30.18 "Hg

Humidity: 33%

Dew point: 25 °F

Location of PaderbornLocation

Historic Weather in Paderborn — Graph

°F

Paderborn temperature yesterday

Maximum temperature yesterday: 54 °F (at 4:20 PM)
Minimum temperature yesterday: 32 °F (at 6:20 AM)
Average temperature yesterday: 43 °F

Past Weeks' High & Low Weather Summary

 TemperatureHumidityPressure
High70 °F (Apr 15, 2:20 PM)93% (Apr 5, 3:50 AM)30.60 "Hg (Apr 5, 3:50 AM)
Low27 °F (Apr 5, 5:50 AM)28% (Apr 10, 6:20 PM)29.92 "Hg (Apr 15, 8:20 PM)
Average47 °F62%30.25 "Hg
* Reported Apr 4 12:20 PM — Apr 19 12:20 PM, Paderborn, Weather by CustomWeather, © 2015

Note: Actual official high and low records may vary slightly from our data, if they occured in-between our weather recording intervals... More about our weather records

Advertising

Paderborn weather history for previous 24 hours

 ConditionsComfort  
Time TempWeatherWind HumidityBarometerVisibility
12:20 PM
Sun, Apr 19
52 °FSunny.5 mph44%30.18 "Hg10 mi
11:50 AM50 °FPassing clouds.5 mph50%30.18 "HgN/A
11:20 AM48 °FPassing clouds.3 mph62%30.18 "HgN/A
10:50 AM45 °FPassing clouds.3 mph66%30.18 "HgN/A
10:20 AM43 °FPassing clouds.5 mph71%30.18 "HgN/A
9:50 AM43 °FSunny.2 mph66%30.18 "Hg10 mi
9:20 AM43 °FSunny.2 mph66%30.18 "Hg10 mi
8:50 AM37 °FSunny.2 mph75%30.18 "Hg10 mi
8:15 AM34 °FSunny.2 mph87%30.18 "Hg10 mi
7:50 AM32 °FSunny.8 mph87%30.18 "Hg10 mi
7:20 AM30 °FClear.7 mph86%30.18 "Hg10 mi
6:50 AM28 °FClear.7 mph86%30.18 "Hg10 mi
6:20 AM30 °FClear.1 mph86%30.18 "Hg10 mi
5:50 AM30 °FClear.2 mph86%30.18 "Hg10 mi
5:20 AM30 °FPassing clouds.3 mph86%30.18 "HgN/A
4:50 AM30 °FClear.2 mph86%30.18 "Hg10 mi
4:20 AM32 °FPassing clouds.3 mph80%30.21 "HgN/A
3:50 AM32 °FPassing clouds.3 mph80%30.21 "HgN/A
3:20 AM32 °FPassing clouds.5 mph80%30.21 "HgN/A
2:50 AM34 °FClear.1 mph75%30.21 "Hg10 mi
2:20 AM36 °FClear.1 mph75%30.24 "Hg10 mi
1:20 AM36 °FPassing clouds.5 mph75%30.24 "HgN/A
12:50 AM36 °FClear.2 mph75%30.24 "Hg10 mi
12:20 AM36 °FClear.3 mph75%30.24 "Hg10 mi
11:50 PM
Sat, Apr 18
39 °FClear.2 mph65%30.27 "Hg10 mi
11:20 PM39 °FClear.2 mph65%30.27 "Hg10 mi
10:50 PM39 °FClear.3 mph65%30.24 "Hg10 mi
10:20 PM41 °FClear.5 mph61%30.27 "Hg10 mi
9:50 PM45 °FClear.1 mph49%30.27 "Hg10 mi
9:20 PM45 °FSunny.2 mph49%30.27 "Hg10 mi
8:50 PM46 °FSunny.2 mph46%30.24 "Hg10 mi
8:20 PM48 °FSunny.2 mph40%30.24 "Hg10 mi
7:50 PM50 °FSunny.2 mph35%30.24 "Hg10 mi
7:20 PM50 °FPassing clouds.6 mph35%30.24 "HgN/A
6:50 PM52 °FPassing clouds.5 mph35%30.27 "HgN/A
6:20 PM52 °FPassing clouds.6 mph35%30.27 "HgN/A
5:50 PM52 °FSunny.3 mph35%30.27 "Hg10 mi
5:20 PM52 °FPassing clouds.7 mph35%30.27 "HgN/A
4:50 PM52 °FSunny.6 mph35%30.27 "Hg10 mi
4:20 PM54 °FSunny.5 mph35%30.27 "Hg10 mi
3:50 PM50 °FPassing clouds.6 mph37%30.30 "HgN/A
3:20 PM50 °FSunny.7 mph37%30.30 "Hg10 mi
2:50 PM50 °FSunny.6 mph37%30.30 "Hg10 mi
2:20 PM50 °FPassing clouds.6 mph37%30.30 "HgN/A
1:50 PM48 °FSunny.6 mph40%30.33 "Hg10 mi
1:20 PM48 °FSunny.3 mph40%30.33 "Hg10 mi
Weather by CustomWeather, © 2015

See weather overviewHow to use our weather pages